Location: Six Mile Lake
(44.9000°N, 79.7170°W)
Time: 23:55:58
(UTC-04:00)

JY1SAT - Pass Details

Date: 29 June 2022
Orbit: 564 x 586 km, 97.6° (Epoch: 17 August)

Event Time Altitude Azimuth Distance (km) Brightness Sun altitude
Exits shadow 00:06:08 - 236° (SW) 2,102 ? -19.7°
Reaches altitude 10° 00:07:07 10° 247° (WSW) 1,911 ? -19.7°
Maximum altitude 00:08:47 12° 271° (W) 1,777 ? -19.8°
Drops below altitude 10° 00:10:28 10° 295° (WNW) 1,918 ? -19.9°
Sets 00:13:57 0° 326° (NNW) 2,826 ? -20.1°
